Printer-friendly version

IAU Minor Planet Center

Minor Planet Center

MPEC 2000-F04: 2000 ED104

The following Minor Planet Electronic Circular may be linked-to from your own Web pages, but must not otherwise be redistributed electronically.


Read MPEC 2000-F03 Read MPEC 2000-F05


M.P.E.C. 2000-F04                                Issued 2000 Mar. 16, 20:19 UT

     The Minor Planet Electronic Circulars contain information on unusual
         minor planets and routine data on comets.  They are published
   on behalf of Commission 20 of the International Astronomical Union by the
          Minor Planet Center, Smithsonian Astrophysical Observatory,
                          Cambridge, MA 02138, U.S.A.

             Prepared using the Tamkin Foundation Computer Network

             BMARSDEN@CFA.HARVARD.EDU or GWILLIAMS@CFA.HARVARD.EDU
          URL http://cfa-www.harvard.edu/iau/mpc.html  ISSN 1523-6714

                                  2000 ED104

Observations:
     K00EA4D* C2000 03 10.38867 14 04 41.15 -15 28 16.8          15.9        704
     K00EA4D  C2000 03 10.40310 14 04 40.39 -15 27 39.9          16.3        704
     K00EA4D  C2000 03 10.41669 14 04 39.78 -15 27 04.8          16.5        704
     K00EA4D  C2000 03 10.43028 14 04 39.15 -15 26 31.3          16.3        704
     K00EA4D  C2000 03 11.37374 14 03 55.86 -14 46 36.2          18.5        704
     K00EA4D  C2000 03 11.38846 14 03 55.08 -14 45 58.2          18.9        704
     K00EA4D  C2000 03 11.40536 14 03 54.19 -14 45 15.4          18.7        704
     K00EA4D  C2000 03 11.41812 14 03 53.51 -14 44 42.4          18.8        704
     K00EA4D  C2000 03 11.43680 14 03 52.56 -14 43 54.5          18.8        704
     K00EA4D  C2000 03 12.32215 14 03 09.31 -14 05 35.0          17.8 R      858
     K00EA4D  C2000 03 12.32561 14 03 09.14 -14 05 26.2          17.9 R      858
     K00EA4D  C2000 03 12.32897 14 03 08.96 -14 05 17.6          18.1 R      858
     K00EA4D  C2000 03 12.45906 14 03 01.82 -13 59 35.9          18.5        704
     K00EA4D  C2000 03 12.47176 14 03 01.06 -13 59 01.7          18.9        704
     K00EA4D  C2000 03 12.48448 14 03 00.41 -13 58 27.9          18.9        704
     K00EA4D  C2000 03 12.49711 14 02 59.65 -13 57 55.0          19.1        704
     K00EA4D 1C2000 03 13.74441 14 01 53.30 -13 02 14.4          17.9 R      413
     K00EA4D 1C2000 03 13.74613 14 01 53.19 -13 02 09.7          18.0 R      413
     K00EA4D  C2000 03 13.96159 14 01 41.77 -12 52 40.2          17.7 R      046
     K00EA4D  C2000 03 13.96393 14 01 41.65 -12 52 34.5                      046
     K00EA4D  C2000 03 13.96510 14 01 41.53 -12 52 31.3                      046
     K00EA4D  C2000 03 13.96648 14 01 41.50 -12 52 26.9                      046
     K00EA4D  C2000 03 13.96767 14 01 41.47 -12 52 23.1          17.6 R      046
     K00EA4D  C2000 03 13.96948 14 01 41.29 -12 52 18.9                      046
     K00EA4D  C2000 03 14.37637 14 01 18.07 -12 33 47.6          18.8        704
     K00EA4D  C2000 03 14.38909 14 01 17.19 -12 33 13.9          18.9        704
     K00EA4D  C2000 03 14.40176 14 01 16.47 -12 32 37.9          18.3        704
     K00EA4D  C2000 03 14.41444 14 01 15.73 -12 32 03.4          18.4        704
     K00EA4D  C2000 03 14.71243 14 00 58.54 -12 18 25.0          18.7 V      402
     K00EA4D  C2000 03 14.71480 14 00 58.36 -12 18 18.0                      402
     K00EA4D  C2000 03 14.71597 14 00 58.28 -12 18 14.2                      402
     K00EA4D  C2000 03 14.71715 14 00 58.25 -12 18 12.2                      402
     K00EA4D  C2000 03 15.33644 14 00 21.84 -11 49 34.4          18.6 V      651
     K00EA4D  C2000 03 15.33937 14 00 21.64 -11 49 26.0                      651
     K00EA4D  C2000 03 15.34090 14 00 21.55 -11 49 22.2                      651
     K00EA4D  C2000 03 15.45139 14 00 14.31 -11 44 12.4          18.6        704
     K00EA4D  C2000 03 15.46396 14 00 13.60 -11 43 36.4          18.6        704
     K00EA4D  C2000 03 15.47719 14 00 12.68 -11 43 01.1          19.2        704
     K00EA4D  C2000 03 15.48973 14 00 11.90 -11 42 25.5          18.7        704
     K00EA4D IC2000 03 15.69689 13 59 59.58 -11 32 31.7          19.7        422
     K00EA4D  C2000 03 15.70248 13 59 59.12 -11 32 16.5          19.4        422

Observer details:
046 Klet.  Observer M. Tichy.  0.57-m f/5.2 reflector + CCD.
402 Dynic Astronomical Observatory.  Observer A. Sugie.  0.60-m f/3.7 reflector
    + CCD.
413 Siding Spring.  Observer R. H. McNaught.  1.0-m f/8 reflector + CCD.
422 Loomberah.  Observer G. J. Garradd.  0.45-m f/5.4 reflector + CCD.
651 Grasslands Observatory, Tucson.  Observer J. E. McGaha.  0.62-m f/5.1
    reflector + CCD.
704 Lincoln Laboratory ETS, New Mexico.  Observers M. Blythe, F. Shelly,
    M. Bezpalko, M. Elowitz, R. Huber.  Measurers J. Stuart, H. Viggh,
    R. Sayer, J. B. Evans.  1.0-m f/2.15 reflector + CCD.
858 Tebbutt Observatory, Edgewood.  Observer F. B. Zoltowski.  0.3-m f/3.3
    Schmidt-Cassegrain + CCD.

Orbital elements:
2000 ED104
Epoch 2000 Feb. 26.0 TT = JDT 2451600.5                 Williams
M 108.24263              (2000.0)            P               Q
n   0.61411112     Peri.  218.35661     +0.68965657     -0.71502679
a   1.3707915      Node   190.09568     +0.71177891     +0.64027213
e   0.2687949      Incl.   40.78333     -0.13320885     -0.28069253
P   1.60           H   17.0           G   0.15
From 41 observations 2000 Mar. 10-15.

Ephemeris:
2000 ED104               a,e,i = 1.37, 0.27, 41                  q = 1.0023
Date    TT    R. A. (2000) Decl.     Delta      r     Elong.  Phase     V
2000 03 07    14 06.87   -17 44.0    0.753    1.591   130.9    28.1    18.6
2000 03 12    14 03.42   -14 19.5    0.722    1.604   138.0    24.5    18.5
2000 03 17    13 58.62   -10 30.9    0.696    1.617   145.4    20.4    18.3
2000 03 22    13 52.60   -06 22.2    0.678    1.629   152.8    16.2    18.1
2000 03 27    13 45.54   -02 00.1    0.668    1.641   159.7    12.2    17.9
2000 04 01    13 37.71   +02 26.2    0.667    1.652   164.5     9.3    17.8
2000 04 06    13 29.44   +06 46.0    0.675    1.662   164.9     9.0    17.9
2000 04 11    13 21.09   +10 49.0    0.692    1.672   160.8    11.4    18.0
2000 04 16    13 13.04   +14 27.6    0.718    1.681   154.6    14.8    18.2
2000 04 21    13 05.59   +17 37.2    0.751    1.689   147.9    18.4    18.5
2000 04 26    12 58.98   +20 16.5    0.790    1.697   141.4    21.7    18.7
2000 05 01    12 53.38   +22 26.2    0.835    1.704   135.1    24.7    18.9
2000 05 06    12 48.90   +24 08.7    0.883    1.710   129.2    27.2    19.1
2000 05 11    12 45.59   +25 27.1    0.935    1.716   123.8    29.3    19.3
2000 05 16    12 43.44   +26 24.8    0.989    1.721   118.7    31.0    19.5
2000 05 21    12 42.39   +27 05.0    1.045    1.726   114.0    32.4    19.6
2000 05 26    12 42.36   +27 30.3    1.102    1.730   109.7    33.5    19.8

2000 06 05    12 45.09   +27 45.7    1.216    1.736   101.8    34.9    20.1
2000 06 15    12 51.00   +27 25.7    1.328    1.739    94.8    35.6    20.3
2000 06 25    12 59.49   +26 40.7    1.436    1.739    88.6    35.8    20.5
2000 07 05    13 10.12   +25 37.4    1.538    1.737    83.0    35.5    20.6
2000 07 15    13 22.54   +24 20.6    1.633    1.732    77.9    35.0    20.7
2000 07 25    13 36.48   +22 53.9    1.718    1.725    73.2    34.3    20.8
2000 08 04    13 51.78   +21 19.4    1.794    1.715    68.9    33.5    20.8
2000 08 14    14 08.34   +19 39.4    1.861    1.702    65.0    32.6    20.9
2000 08 24    14 26.06   +17 55.4    1.918    1.687    61.4    31.8    20.9

Gareth V. Williams           (C) Copyright 2000 MPC           M.P.E.C. 2000-F04

Read MPEC 2000-F03 Read MPEC 2000-F05


Our Web policy. Index to the CBAT/MPC/ICQ pages.


Valid HTML 4.01!